This is the latest recevied weather packets stored in our database for station/object F5ZQC-13. If no packets are shown the sender has not sent any weather packets the latest 10 day(s).
| Time | Temp. | Humidity | Pressure | Rain* | Wind** | Luminosity | Snow |
|---|---|---|---|---|---|---|---|
| 1777615933 | 16.11° C | 59% | 1017.2 hPa | 0 mm | - | - | - |
| 1777615815 | 15.56° C | 57% | 1017.3 hPa | 0 mm | - | - | - |
| 1777615693 | 15.56° C | 58% | 1017.4 hPa | 0 mm | - | - | - |
| 1777615571 | 15.56° C | 59% | 1017.1 hPa | 0 mm | - | - | - |
| 1777615453 | 15.56° C | 58% | 1017.4 hPa | 0 mm | - | - | - |
| 1777615204 | 15.56° C | 59% | 1017.3 hPa | 0 mm | - | - | - |
| 1777615130 | 15.56° C | 60% | 1017.2 hPa | 0 mm | - | - | - |
| 1777615098 | 15.56° C | 59% | 1017.2 hPa | 0 mm | - | - | - |
| 1777614853 | 15.56° C | 60% | 1017.2 hPa | 0 mm | - | - | - |
| 1777614731 | 15.56° C | 61% | 1017.4 hPa | 0 mm | - | - | - |
| 1777614609 | 15.56° C | 59% | 1017.1 hPa | 0 mm | - | - | - |
| 1777614487 | 15.56° C | 60% | 1017.2 hPa | 0 mm | - | - | - |
| 1777614338 | 15.56° C | 60% | 1017.1 hPa | 0 mm | - | - | - |
| 1777614216 | 15.56° C | 59% | 1017.2 hPa | 0 mm | - | - | - |
| 1777613971 | 15.56° C | 58% | 1016.9 hPa | 0 mm | - | - | - |
| 1777613848 | 15.56° C | 61% | 1017.2 hPa | 0 mm | - | - | - |
| 1777613725 | 15.56° C | 59% | 1017.2 hPa | 0 mm | - | - | - |
| 1777613603 | 15.56° C | 60% | 1016.8 hPa | 0 mm | - | - | - |
| 1777613542 | 15.56° C | 60% | 1017.3 hPa | 0 mm | - | - | - |
| 1777613403 | 15.56° C | 59% | 1016.9 hPa | 0 mm | - | - | - |
| 1777613158 | 15.56° C | 59% | 1016.8 hPa | 0 mm | - | - | - |
| 1777613036 | 15.56° C | 60% | 1017 hPa | 0 mm | - | - | - |
| 1777612914 | 15.56° C | 64% | 1017 hPa | 0 mm | - | - | - |
| 1777612633 | 15.56° C | 60% | 1016.8 hPa | 0 mm | - | - | - |
| 1777612421 | 15.56° C | 56% | 1016.8 hPa | 0 mm | - | - | - |
* Rain since midnight (hover to see other rain measurements)
** Current wind speed in m/s (hover to see current wind gust speed)